Weather History for KDFW - March, 2014

Change the Weather History Date:

Thursday, March 20, 2014

  Actual Average Record
Temperature  
Mean Temperature 56 °F 59 °F  
Max Temperature 72 °F 69 °F 91 °F (1932)
Min Temperature 40 °F 48 °F 19 °F (1965)
Degree Days  
Heating Degree Days 9 7  
Month to date heating degree days 259 193  
Since 1 July heating degree days 2432 2125  
Cooling Degree Days 0 1  
Month to date cooling degree days 8 18  
Year to date cooling degree days 8 25  
Growing Degree Days 6 (Base 50)    
Moisture  
Dew Point 31 °F    
Average Humidity 43    
Maximum Humidity 65    
Minimum Humidity 20    
Precipitation  
Precipitation 0.00 in 0.11 in 2.17 in (2012)
Month to date precipitation 1.39 2.27  
Year to date precipitation 2.13 7.06  
Snow  
Snow 0.00 in 0.00 in 1.20 in (2010)
Month to date snowfall 0.1 0.1  
Since 1 July snowfall 2.9 1.1  
Snow Depth 0.00 in    
Sea Level Pressure  
Sea Level Pressure 30.12 in    
Wind  
Wind Speed 7 mph (SSE)    
Max Wind Speed 15 mph    
Max Gust Speed 19 mph    
Visibility 10 miles    
Events      
T = Trace of Precipitation, MM = Missing Value Source: NWS Daily Summary

Daily Weather History Graph

Daily Weather History Graph

Search for Another Location

Airport or City:

Trip Planner

Search our weather history database for the weather conditions in past years. The results will help you decide how hot, cold, wet, or windy it might be!

Date:

Astronomy

Mar. 20, 2014 Rise Set
Actual Time 7:31 AM CDT 7:39 PM CDT
Civil Twilight 7:07 AM CDT 8:04 PM CDT
Nautical Twilight 6:38 AM CDT 8:33 PM CDT
Astronomical Twilight 6:09 AM CDT 9:02 PM CDT
Moon 11:47 PM CDT (3/20) 9:51 AM CDT (3/20)
Length of Visible Light 12h 57m
Length of Day
12h 07m
Waning Gibbous, 84% of the Moon is Illuminated
Mar 20
Waning Gibbous
Mar 23
Last Quarter
Mar 30
New
Apr 7
First Quarter
Apr 15
Full

Hourly Weather History & Observations

Time (CDT) Temp. Windchill Dew Point Humidity Pressure Visibility Wind Dir Wind Speed Gust Speed Precip Events Conditions
12:53 AM 46.9 °F - 32.0 °F 56% 30.21 in 10.0 mi NNW 8.1 mph - N/A   Clear
1:53 AM 46.0 °F 41.9 °F 30.9 °F 56% 30.21 in 10.0 mi NNW 8.1 mph - N/A   Clear
2:53 AM 45.0 °F 40.1 °F 30.9 °F 58% 30.20 in 10.0 mi NNW 9.2 mph - N/A   Clear
3:53 AM 43.0 °F 38.2 °F 30.9 °F 62% 30.19 in 10.0 mi NNW 8.1 mph - N/A   Clear
4:53 AM 43.0 °F 39.5 °F 30.0 °F 60% 30.19 in 10.0 mi North 5.8 mph - N/A   Clear
5:53 AM 44.1 °F 42.5 °F 32.0 °F 63% 30.19 in 10.0 mi North 3.5 mph - N/A   Clear
6:53 AM 44.1 °F - 32.0 °F 63% 30.19 in 10.0 mi Calm Calm - N/A   Partly Cloudy
7:53 AM 41.0 °F - 30.9 °F 67% 30.19 in 10.0 mi Calm Calm - N/A   Partly Cloudy
8:53 AM 46.9 °F - 34.0 °F 61% 30.20 in 10.0 mi SSW 4.6 mph - N/A   Partly Cloudy
9:53 AM 54.0 °F - 34.0 °F 47% 30.22 in 10.0 mi South 5.8 mph - N/A   Partly Cloudy
10:53 AM 60.1 °F - 32.0 °F 35% 30.22 in 10.0 mi SSE 9.2 mph - N/A   Partly Cloudy
11:53 AM 63.0 °F - 30.9 °F 30% 30.20 in 10.0 mi SSE 6.9 mph - N/A   Clear
12:53 PM 64.9 °F - 30.9 °F 28% 30.18 in 10.0 mi SSE 9.2 mph - N/A   Clear
1:53 PM 66.9 °F - 28.9 °F 24% 30.14 in 10.0 mi SSE 9.2 mph - N/A   Partly Cloudy
2:53 PM 69.1 °F - 30.0 °F 23% 30.10 in 10.0 mi SSE 5.8 mph - N/A   Clear
3:53 PM 71.1 °F - 28.0 °F 20% 30.06 in 10.0 mi SSE 8.1 mph - N/A   Clear
4:53 PM 72.0 °F - 28.0 °F 20% 30.04 in 10.0 mi South 10.4 mph - N/A   Clear
5:53 PM 71.1 °F - 28.0 °F 20% 30.01 in 10.0 mi SSE 11.5 mph - N/A   Partly Cloudy
6:53 PM 69.1 °F - 28.0 °F 22% 30.00 in 10.0 mi SSE 12.7 mph - N/A   Partly Cloudy
7:53 PM 64.9 °F - 28.9 °F 26% 29.99 in 10.0 mi South 10.4 mph - N/A   Partly Cloudy
8:53 PM 61.0 °F - 30.0 °F 31% 29.99 in 10.0 mi SSE 8.1 mph - N/A   Partly Cloudy
9:53 PM 57.9 °F - 30.9 °F 36% 29.99 in 10.0 mi SSE 9.2 mph - N/A   Partly Cloudy
10:53 PM 59.0 °F - 30.9 °F 35% 29.99 in 10.0 mi South 9.2 mph - N/A   Partly Cloudy
11:53 PM 57.0 °F - 30.9 °F 37% 29.99 in 10.0 mi SSE 8.1 mph - N/A   Partly Cloudy